Zurück zum Katalog

STARLINK-37211

AktivKommunikationSSO
NORAD 68620·PAYLOAD·🇺🇸 United States

Gestartet Apr 5, 2026 von Vandenberg Space Force Base

Loading…

Nächste Überflüge (nächste 24 Stunden)

TLE

AktuellSource: CelesTrak SupGP

Epoche: Sep 15, 2026, 03:28 UTC

1 68620C 26073U   26258.14493056 -.00047645  00000+0 -14783-2 0  2585
2 68620  97.2853  96.3022 0001985  86.6018 294.0315 15.33477645    12

Verfolge STARLINK-37211 in Echtzeit mit AllMySat

Download on the App Store